Total_Precipitation_Accumulation
0.12 0.26 0.35 0.21 0.14 0.14 0.06 0.02 0.01 0.00 0.05 0.18 0.13 0.07 0.00 0.00 0.00 0.00 0.00 0.00 0.00 0.00 0.00 0.00 0.00 0.00 0.00 0.00 0.00 0.00 0.00 0.03 0.01 0.00 0.00 0.01 0.02 0.01 0.03 0.07 0.06 0.03 0.01 0.00
0.07 0.13 0.19 0.25 0.19 0.24 0.16 0.06 0.01 0.02 0.19 0.08 0.10 0.04 0.00 0.00 0.00 0.00 0.00 0.00 0.00 0.00 0.00 0.00 0.00 0.00 0.00 0.00 0.01 0.02 0.07 0.08 0.06 0.04 0.03 0.01 0.01 0.01 0.02 0.04 0.07 0.04 0.03 0.00
0.10 0.08 0.11 0.09 0.09 0.14 0.15 0.16 0.11 0.11 0.18 0.06 0.01 0.02 0.02 0.01 0.00 0.00 0.01 0.01 0.00 0.00 0.00 0.00 0.00 0.00 0.00 0.00 0.01 0.02 0.08 0.05 0.04 0.04 0.02 0.00 0.00 0.00 0.04 0.10 0.16 0.05 0.02 0.00
0.25 0.15 0.07 0.05 0.06 0.10 0.14 0.26 0.16 0.05 0.13 0.09 0.01 0.01 0.01 0.00 0.01 0.01 0.02 0.03 0.01 0.01 0.02 0.00 0.00 0.00 0.00 0.00 0.01 0.02 0.07 0.04 0.01 0.00 0.00 0.01 0.00 0.01 0.03 0.11 0.09 0.09 0.04 0.01
0.24 0.23 0.14 0.05 0.07 0.12 0.24 0.33 0.09 0.02 0.00 0.00 0.03 0.04 0.01 0.00 0.00 0.02 0.02 0.02 0.00 0.04 0.02 0.00 0.00 0.01 0.01 0.01 0.01 0.01 0.03 0.03 0.01 0.00 0.00 0.02 0.01 0.00 0.01 0.03 0.05 0.08 0.06 0.05
0.16 0.26 0.15 0.06 0.07 0.14 0.38 0.40 0.12 0.01 0.01 0.00 0.05 0.08 0.01 0.00 0.00 0.00 0.00 0.01 0.02 0.02 0.00 0.01 0.01 0.02 0.01 0.02 0.02 0.03 0.03 0.02 0.02 0.02 0.00 0.03 0.07 0.00 0.00 0.00 0.00 0.00 0.00 0.00
0.14 0.12 0.14 0.07 0.07 0.05 0.12 0.15 0.17 0.09 0.03 0.02 0.00 0.00 0.00 0.00 0.00 0.00 0.00 0.00 0.00 0.00 0.00 0.00 0.06 0.10 0.03 0.01 0.01 0.01 0.03 0.05 0.10 0.08 0.06 0.11 0.01 0.00 0.00 0.00 0.00 0.00 0.00 0.00
0.09 0.07 0.08 0.07 0.06 0.04 0.00 0.07 0.16 0.14 0.08 0.01 0.01 0.00 0.00 0.00 0.00 0.00 0.00 0.00 0.00 0.04 0.07 0.06 0.09 0.14 0.19 0.14 0.07 0.04 0.01 0.03 0.08 0.08 0.07 0.02 0.00 0.00 0.00 0.00 0.00 0.00 0.00 0.00
0.12 0.04 0.05 0.05 0.06 0.05 0.01 0.00 0.07 0.16 0.08 0.02 0.01 0.01 0.00 0.00 0.00 0.00 0.00 0.00 0.00 0.03 0.08 0.13 0.10 0.09 0.12 0.09 0.09 0.06 0.11 0.12 0.14 0.11 0.02 0.00 0.00 0.00 0.00 0.00 0.00 0.00 0.00 0.00
0.09 0.03 0.02 0.03 0.05 0.07 0.03 0.00 0.00 0.09 0.16 0.01 0.02 0.03 0.02 0.00 0.00 0.00 0.00 0.01 0.01 0.03 0.15 0.19 0.09 0.02 0.01 0.06 0.08 0.10 0.12 0.16 0.20 0.10 0.02 0.00 0.00 0.00 0.00 0.00 0.00 0.00 0.00 0.00
0.01 0.01 0.02 0.03 0.04 0.08 0.06 0.00 0.01 0.01 0.06 0.02 0.01 0.01 0.01 0.03 0.01 0.01 0.00 0.05 0.04 0.09 0.16 0.19 0.14 0.08 0.02 0.01 0.00 0.00 0.02 0.02 0.02 0.02 0.02 0.00 0.00 0.00 0.00 0.00 0.00 0.00 0.00 0.00
0.00 0.00 0.01 0.03 0.06 0.09 0.08 0.01 0.01 0.04 0.07 0.05 0.01 0.00 0.00 0.01 0.03 0.03 0.02 0.02 0.02 0.03 0.04 0.11 0.12 0.13 0.06 0.02 0.01 0.00 0.00 0.00 0.00 0.00 0.00 0.00 0.00 0.00 0.00 0.00 0.00 0.00 0.00 0.00
0.01 0.00 0.00 0.01 0.03 0.08 0.07 0.01 0.03 0.09 0.15 0.07 0.02 0.01 0.00 0.00 0.00 0.01 0.06 0.01 0.00 0.02 0.03 0.04 0.09 0.09 0.02 0.02 0.01 0.00 0.00 0.00 0.00 0.00 0.00 0.00 0.00 0.00 0.00 0.00 0.00 0.00 0.00 0.00
0.04 0.02 0.00 0.00 0.01 0.04 0.09 0.04 0.09 0.09 0.08 0.05 0.00 0.00 0.00 0.00 0.00 0.00 0.01 0.00 0.01 0.01 0.02 0.06 0.08 0.06 0.02 0.01 0.01 0.01 0.00 0.00 0.00 0.00 0.00 0.00 0.00 0.00 0.00 0.00 0.00 0.00 0.00 0.00
0.10 0.07 0.03 0.01 0.01 0.03 0.11 0.09 0.08 0.17 0.09 0.07 0.02 0.04 0.04 0.03 0.04 0.02 0.08 0.02 0.01 0.06 0.05 0.12 0.14 0.05 0.03 0.03 0.01 0.00 0.00 0.00 0.00 0.00 0.00 0.00 0.00 0.00 0.00 0.00 0.00 0.00 0.00 0.00
0.11 0.08 0.05 0.03 0.06 0.10 0.18 0.36 0.21 0.15 0.23 0.16 0.07 0.12 0.12 0.06 0.04 0.09 0.10 0.10 0.02 0.09 0.16 0.08 0.07 0.01 0.00 0.00 0.00 0.00 0.00 0.00 0.00 0.00 0.00 0.00 0.00 0.00 0.00 0.00 0.00 0.00 0.00 0.00
0.09 0.09 0.07 0.11 0.16 0.13 0.10 0.10 0.03 0.07 0.18 0.31 0.18 0.18 0.25 0.25 0.17 0.16 0.08 0.13 0.07 0.04 0.07 0.03 0.00 0.00 0.00 0.04 0.02 0.00 0.00 0.00 0.00 0.00 0.00 0.00 0.00 0.00 0.00 0.00 0.00 0.00 0.00 0.00
0.08 0.11 0.16 0.23 0.22 0.18 0.06 0.01 0.02 0.10 0.20 0.16 0.05 0.12 0.22 0.18 0.11 0.09 0.02 0.03 0.03 0.01 0.00 0.00 0.00 0.00 0.00 0.01 0.00 0.00 0.00 0.00 0.00 0.00 0.00 0.00 0.00 0.00 0.00 0.00 0.00 0.00 0.00 0.00
0.21 0.27 0.35 0.38 0.27 0.17 0.08 0.03 0.13 0.13 0.14 0.06 0.01 0.06 0.07 0.05 0.02 0.01 0.00 0.00 0.00 0.00 0.00 0.00 0.00 0.00 0.00 0.00 0.00 0.00 0.00 0.00 0.00 0.00 0.00 0.00 0.00 0.00 0.00 0.00 0.00 0.00 0.00 0.00
0.29 0.27 0.26 0.25 0.16 0.13 0.14 0.26 0.23 0.15 0.10 0.01 0.00 0.00 0.01 0.01 0.00 0.00 0.00 0.00 0.00 0.00 0.00 0.00 0.00 0.00 0.00 0.00 0.00 0.00 0.00 0.00 0.00 0.00 0.00 0.00 0.00 0.00 0.00 0.00 0.00 0.00 0.00 0.00
0.11 0.06 0.08 0.23 0.33 0.15 0.10 0.10 0.06 0.03 0.00 0.00 0.00 0.00 0.00 0.00 0.00 0.00 0.00 0.00 0.00 0.00 0.00 0.00 0.00 0.00 0.00 0.00 0.00 0.00 0.00 0.00 0.00 0.00 0.00 0.00 0.00 0.00 0.00 0.00 0.00 0.00 0.00 0.00
0.00 0.01 0.11 0.20 0.11 0.02 0.00 0.00 0.00 0.00 0.00 0.00 0.00 0.00 0.00 0.00 0.00 0.00 0.00 0.00 0.00 0.00 0.00 0.00 0.00 0.00 0.00 0.00 0.00 0.00 0.00 0.00 0.00 0.00 0.00 0.00 0.00 0.00 0.00 0.00 0.00 0.00 0.00 0.00
0.00 0.00 0.01 0.02 0.00 0.00 0.00 0.00 0.00 0.00 0.00 0.00 0.00 0.00 0.00 0.00 0.00 0.00 0.00 0.00 0.00 0.00 0.00 0.00 0.00 0.00 0.00 0.00 0.00 0.00 0.00 0.00 0.00 0.00 0.00 0.00 0.00 0.00 0.00 0.00 0.01 0.02 0.02 0.01
0.00 0.00 0.00 0.00 0.00 0.00 0.00 0.00 0.00 0.00 0.00 0.00 0.00 0.00 0.00 0.00 0.00 0.00 0.00 0.00 0.00 0.00 0.00 0.00 0.00 0.00 0.00 0.00 0.00 0.00 0.00 0.00 0.00 0.00 0.00 0.00 0.00 0.01 0.02 0.03 0.04 0.03 0.02 0.02
0.00 0.00 0.00 0.00 0.00 0.00 0.00 0.00 0.00 0.00 0.00 0.00 0.00 0.00 0.00 0.00 0.00 0.00 0.00 0.00 0.00 0.00 0.00 0.00 0.00 0.00 0.00 0.00 0.00 0.00 0.00 0.00 0.00 0.00 0.00 0.00 0.00 0.01 0.04 0.07 0.06 0.06 0.05 0.05
0.00 0.00 0.00 0.01 0.01 0.02 0.01 0.00 0.00 0.00 0.00 0.00 0.00 0.00 0.00 0.00 0.00 0.00 0.00 0.00 0.00 0.00 0.00 0.00 0.00 0.00 0.00 0.00 0.00 0.00 0.00 0.00 0.00 0.00 0.00 0.00 0.01 0.03 0.05 0.08 0.10 0.09 0.06 0.05
0.00 0.01 0.01 0.01 0.02 0.03 0.02 0.00 0.00 0.00 0.00 0.00 0.00 0.00 0.00 0.00 0.00 0.00 0.00 0.00 0.00 0.00 0.00 0.00 0.00 0.00 0.00 0.00 0.00 0.00 0.00 0.00 0.00 0.00 0.01 0.02 0.04 0.04 0.06 0.06 0.08 0.09 0.09 0.08